�������l�o���
Date,Time,MP-1(��Sv/h),MP-2(��Sv/h),MP-3(��Sv/h),MP-4(��Sv/h),MP-5(��Sv/h),MP-6(��Sv/h),MP-7(��Sv/h),MP-8(��Sv/h),����,����(m/s),���J
2022/07/28,00:00,0.576,0.816,0.522,0.979,0.695,0.336,0.576,0.548,�쐼,3.1,��
2022/07/28,00:10,0.577,0.814,0.522,0.977,0.694,0.335,0.578,0.547,�쐼,3.0,��
2022/07/28,00:20,0.576,0.814,0.522,0.978,0.694,0.335,0.577,0.545,��쐼,1.5,��
2022/07/28,00:30,0.576,0.814,0.521,0.980,0.695,0.337,0.577,0.546,���쐼,1.4,��
2022/07/28,00:40,0.575,0.814,0.521,0.977,0.695,0.336,0.577,0.547,���쐼,3.1,��
2022/07/28,00:50,0.576,0.816,0.521,0.979,0.695,0.336,0.577,0.547,���쐼,3.6,��
2022/07/28,01:00,0.575,0.815,0.521,0.979,0.693,0.337,0.577,0.549,��,2.0,��
2022/07/28,01:10,0.577,0.812,0.522,0.979,0.695,0.335,0.578,0.548,���쐼,0.6,��
2022/07/28,01:20,0.575,0.813,0.521,0.979,0.695,0.336,0.579,0.547,��쐼,1.1,��
2022/07/28,01:30,0.577,0.816,0.521,0.978,0.695,0.336,0.578,0.547,���쐼,1.7,��
2022/07/28,01:40,0.576,0.815,0.521,0.979,0.696,0.337,0.577,0.547,���쐼,2.3,��
2022/07/28,01:50,0.577,0.816,0.521,0.978,0.696,0.335,0.578,0.547,���쐼,2.8,��
2022/07/28,02:00,0.576,0.814,0.521,0.978,0.696,0.336,0.577,0.547,���쐼,2.3,��
2022/07/28,02:10,0.577,0.815,0.521,0.978,0.696,0.336,0.579,0.548,�쐼,2.6,��
2022/07/28,02:20,0.575,0.816,0.519,0.980,0.695,0.335,0.576,0.547,��,3.3,��
2022/07/28,02:30,0.576,0.815,0.520,0.979,0.696,0.335,0.577,0.548,��,2.3,��
2022/07/28,02:40,0.575,0.814,0.522,0.978,0.696,0.335,0.578,0.548,���쐼,2.0,��
2022/07/28,02:50,0.577,0.817,0.522,0.979,0.695,0.336,0.578,0.547,��,1.5,��
2022/07/28,03:00,0.577,0.814,0.521,0.980,0.696,0.335,0.579,0.547,�k��,1.9,��
2022/07/28,03:10,0.577,0.818,0.521,0.980,0.697,0.337,0.579,0.547,�k,2.0,��
2022/07/28,03:20,0.577,0.816,0.522,0.980,0.695,0.336,0.579,0.548,�k��,1.1,��
2022/07/28,03:30,0.577,0.813,0.523,0.979,0.695,0.337,0.578,0.548,-,CALM,��
2022/07/28,03:40,0.575,0.817,0.521,0.983,0.697,0.335,0.579,0.548,�k��,1.2,��
2022/07/28,03:50,0.575,0.818,0.521,0.980,0.696,0.337,0.579,0.547,-,CALM,��
2022/07/28,04:00,0.576,0.816,0.523,0.982,0.698,0.335,0.581,0.547,�k,0.6,��
2022/07/28,04:10,0.574,0.815,0.522,0.978,0.697,0.336,0.579,0.546,�k��,1.2,��
2022/07/28,04:20,0.575,0.816,0.522,0.980,0.696,0.336,0.579,0.547,�k��,1.7,��
2022/07/28,04:30,0.574,0.816,0.521,0.979,0.696,0.337,0.581,0.549,�k��,1.5,��
2022/07/28,04:40,0.576,0.818,0.522,0.978,0.696,0.336,0.579,0.549,�k�k��,2.0,��
2022/07/28,04:50,0.576,0.815,0.522,0.979,0.694,0.337,0.579,0.547,�k�k��,2.5,��
2022/07/28,05:00,0.577,0.816,0.522,0.979,0.698,0.335,0.581,0.549,�k,2.0,��
2022/07/28,05:10,0.575,0.816,0.523,0.981,0.696,0.336,0.581,0.548,�k�k��,1.4,��
2022/07/28,05:20,0.576,0.819,0.524,0.979,0.698,0.335,0.579,0.547,�k��,1.2,��
2022/07/28,05:30,0.577,0.819,0.522,0.979,0.695,0.336,0.579,0.548,�k,0.9,��
2022/07/28,05:40,0.575,0.817,0.523,0.980,0.696,0.336,0.579,0.548,�k,0.9,��
2022/07/28,05:50,0.575,0.817,0.523,0.978,0.696,0.336,0.578,0.547,�k,1.2,��
2022/07/28,06:00,0.577,0.817,0.523,0.981,0.696,0.336,0.580,0.546,�k,1.1,��
2022/07/28,06:10,0.575,0.818,0.522,0.979,0.698,0.337,0.580,0.548,�k�k��,1.2,��
2022/07/28,06:20,0.575,0.817,0.522,0.981,0.698,0.337,0.579,0.548,�k,1.5,��
2022/07/28,06:30,0.575,0.817,0.521,0.981,0.697,0.335,0.580,0.546,�k�k��,1.7,��
2022/07/28,06:40,0.572,0.818,0.520,0.979,0.697,0.336,0.581,0.546,�k�k��,1.5,��
2022/07/28,06:50,0.574,0.818,0.520,0.980,0.698,0.336,0.579,0.548,�k��,1.1,��
2022/07/28,07:00,0.578,0.815,0.521,0.981,0.697,0.337,0.580,0.546,�k�k��,0.9,��
2022/07/28,07:10,0.574,0.817,0.521,0.980,0.698,0.336,0.580,0.547,�k,0.6,��
2022/07/28,07:20,0.576,0.818,0.522,0.981,0.697,0.337,0.580,0.549,�k�k��,1.2,��
2022/07/28,07:30,0.575,0.816,0.522,0.977,0.697,0.336,0.579,0.549,�k�k��,2.2,��
2022/07/28,07:40,0.575,0.814,0.521,0.978,0.698,0.335,0.580,0.548,�k,2.6,��
2022/07/28,07:50,0.574,0.816,0.522,0.980,0.695,0.336,0.581,0.547,�k,2.2,��
2022/07/28,08:00,0.575,0.816,0.522,0.978,0.697,0.335,0.579,0.548,�k,2.3,��
2022/07/28,08:10,0.575,0.815,0.523,0.979,0.697,0.335,0.581,0.547,�k�k��,2.3,��
2022/07/28,08:20,0.576,0.815,0.523,0.979,0.698,0.335,0.580,0.546,�k�k��,2.3,��
2022/07/28,08:30,0.578,0.816,0.521,0.980,0.696,0.334,0.579,0.547,�k�k��,1.4,��
2022/07/28,08:40,0.577,0.816,0.522,0.982,0.695,0.337,0.579,0.546,�k,1.4,��
2022/07/28,08:50,0.576,0.817,0.524,0.981,0.698,0.337,0.580,0.546,�k�k��,1.4,��
2022/07/28,09:00,0.576,0.816,0.522,0.979,0.696,0.336,0.580,0.546,�k�k��,1.2,��
2022/07/28,09:10,0.578,0.814,0.522,0.981,0.699,0.335,0.581,0.546,�k��,1.1,��
2022/07/28,09:20,0.575,0.814,0.521,0.982,0.697,0.334,0.581,0.546,�k�k��,1.4,��
2022/07/28,09:30,0.577,0.816,0.523,0.981,0.698,0.335,0.581,0.547,�k�k��,2.3,��
2022/07/28,09:40,0.575,0.814,0.521,0.981,0.699,0.334,0.580,0.546,�k�k��,2.0,��
2022/07/28,09:50,0.576,0.818,0.521,0.980,0.700,0.334,0.580,0.546,�k�k��,2.0,��
2022/07/28,10:00,0.575,0.815,0.523,0.984,0.701,0.334,0.580,0.545,�k�k��,2.2,��
2022/07/28,10:10,0.576,0.816,0.521,0.980,0.699,0.335,0.579,0.548,�k�k��,2.2,��
2022/07/28,10:20,0.577,0.818,0.523,0.980,0.700,0.335,0.579,0.546,�k�k��,2.6,��
2022/07/28,10:30,0.577,0.820,0.524,0.983,0.700,0.336,0.579,0.548,�k�k��,2.0,��
2022/07/28,10:40,0.579,0.819,0.525,0.983,0.699,0.336,0.582,0.546,�k��,1.9,��
2022/07/28,10:50,0.580,0.820,0.524,0.983,0.700,0.335,0.581,0.548,�k,1.5,��
2022/07/28,11:00,0.579,0.818,0.525,0.981,0.701,0.336,0.582,0.547,�k��,1.7,��
2022/07/28,11:10,0.578,0.818,0.525,0.984,0.700,0.336,0.582,0.549,���k��,1.4,��
2022/07/28,11:20,0.578,0.820,0.524,0.984,0.701,0.337,0.582,0.548,���k��,2.3,��
2022/07/28,11:30,0.579,0.821,0.524,0.982,0.700,0.338,0.581,0.549,�k��,1.7,��
2022/07/28,11:40,0.578,0.818,0.527,0.980,0.702,0.336,0.582,0.548,���k��,2.3,��
2022/07/28,11:50,0.579,0.820,0.525,0.982,0.702,0.335,0.581,0.548,�k�k��,2.0,��
2022/07/28,12:00,0.579,0.822,0.524,0.984,0.703,0.335,0.582,0.548,�k�k��,2.6,��
2022/07/28,12:10,0.579,0.823,0.526,0.982,0.702,0.336,0.581,0.546,�k��,2.9,��
2022/07/28,12:20,0.579,0.823,0.525,0.982,0.703,0.335,0.581,0.548,�k��,2.6,��
2022/07/28,12:30,0.578,0.823,0.524,0.984,0.701,0.335,0.583,0.548,�k��,1.7,��
2022/07/28,12:40,0.582,0.822,0.525,0.986,0.703,0.336,0.581,0.549,��,1.5,��
2022/07/28,12:50,0.579,0.823,0.525,0.982,0.703,0.336,0.581,0.547,���k��,1.9,��
2022/07/28,13:00,0.581,0.823,0.524,0.985,0.703,0.336,0.582,0.548,��,2.0,��
2022/07/28,13:10,0.580,0.821,0.525,0.984,0.704,0.335,0.581,0.549,��,1.5,��
2022/07/28,13:20,0.581,0.821,0.525,0.985,0.704,0.336,0.582,0.549,��,1.9,��
2022/07/28,13:30,0.579,0.822,0.525,0.985,0.703,0.338,0.581,0.549,���쓌,2.5,��
2022/07/28,13:40,0.579,0.824,0.527,0.986,0.703,0.337,0.582,0.547,���k��,1.5,��
2022/07/28,13:50,0.579,0.822,0.527,0.986,0.703,0.336,0.582,0.548,��,2.0,��
2022/07/28,14:00,0.579,0.822,0.526,0.986,0.704,0.336,0.581,0.549,���쓌,2.3,��
2022/07/28,14:10,0.578,0.821,0.526,0.984,0.704,0.336,0.581,0.548,��,1.5,��
2022/07/28,14:20,0.579,0.823,0.525,0.987,0.706,0.336,0.579,0.549,��,2.0,��
2022/07/28,14:30,0.579,0.824,0.526,0.986,0.703,0.337,0.581,0.549,���쓌,2.0,��
2022/07/28,14:40,0.578,0.822,0.526,0.988,0.704,0.335,0.580,0.548,�쓌,2.6,��
2022/07/28,14:50,0.580,0.822,0.525,0.986,0.704,0.336,0.580,0.547,���쓌,2.0,��
2022/07/28,15:00,0.579,0.823,0.526,0.988,0.705,0.336,0.580,0.548,�쓌,1.9,��
2022/07/28,15:10,0.579,0.823,0.527,0.987,0.705,0.336,0.581,0.549,�쓌,2.0,��
2022/07/28,15:20,0.579,0.822,0.526,0.985,0.704,0.337,0.581,0.547,��쓌,1.2,��
2022/07/28,15:30,0.583,0.824,0.526,0.989,0.706,0.336,0.580,0.548,�쓌,1.2,�L
2022/07/28,15:40,0.578,0.825,0.527,0.986,0.704,0.337,0.582,0.547,���쓌,1.1,�L
2022/07/28,15:50,0.579,0.825,0.527,0.987,0.705,0.338,0.582,0.546,�쓌,1.5,�L
2022/07/28,16:00,0.579,0.825,0.526,0.988,0.704,0.338,0.580,0.549,��,1.2,��
2022/07/28,16:10,0.579,0.827,0.527,0.987,0.705,0.337,0.582,0.552,���쓌,1.4,�L
2022/07/28,16:20,0.580,0.824,0.527,0.989,0.706,0.338,0.582,0.551,��,1.4,�L
2022/07/28,16:30,0.578,0.826,0.529,0.988,0.707,0.338,0.583,0.549,�쓌,1.2,�L
2022/07/28,16:40,0.579,0.827,0.528,0.987,0.707,0.337,0.582,0.550,�쓌,1.9,��
2022/07/28,16:50,0.579,0.826,0.530,0.989,0.706,0.337,0.583,0.551,���쓌,1.7,��
2022/07/28,17:00,0.580,0.827,0.529,0.987,0.707,0.337,0.581,0.552,��,2.0,��
2022/07/28,17:10,0.582,0.826,0.529,0.988,0.706,0.337,0.582,0.551,���쓌,2.3,��
2022/07/28,17:20,0.584,0.829,0.529,0.987,0.708,0.337,0.583,0.550,��,1.2,��
2022/07/28,17:30,0.584,0.828,0.528,0.988,0.706,0.335,0.582,0.551,�k��,1.2,��
2022/07/28,17:40,0.584,0.828,0.529,0.987,0.707,0.338,0.583,0.550,�k�k��,1.7,��
2022/07/28,17:50,0.583,0.829,0.529,0.987,0.706,0.337,0.582,0.549,�k�k��,0.9,��
2022/07/28,18:00,0.584,0.826,0.528,0.987,0.705,0.335,0.581,0.550,���k��,1.1,��
2022/07/28,18:10,0.584,0.827,0.528,0.988,0.706,0.335,0.581,0.549,�k��,1.2,��
2022/07/28,18:20,0.583,0.828,0.528,0.988,0.707,0.335,0.583,0.551,���k��,1.1,��
2022/07/28,18:30,0.584,0.828,0.529,0.989,0.707,0.336,0.582,0.552,�k�k��,1.2,��
2022/07/28,18:40,0.584,0.827,0.528,0.987,0.706,0.336,0.583,0.550,�k�k��,2.3,��
2022/07/28,18:50,0.583,0.827,0.528,0.986,0.707,0.335,0.581,0.550,�k�k��,2.6,��
2022/07/28,19:00,0.582,0.827,0.527,0.989,0.707,0.336,0.583,0.551,�k�k��,1.7,��
2022/07/28,19:10,0.582,0.826,0.530,0.987,0.705,0.336,0.582,0.549,�k�k��,0.9,��
2022/07/28,19:20,0.584,0.829,0.527,0.989,0.707,0.335,0.582,0.550,���k��,1.1,��
2022/07/28,19:30,0.583,0.828,0.528,0.987,0.705,0.335,0.583,0.550,���쓌,1.2,��
2022/07/28,19:40,0.584,0.828,0.527,0.989,0.707,0.336,0.583,0.550,-,CALM,��
2022/07/28,19:50,0.583,0.829,0.528,0.986,0.706,0.336,0.583,0.551,-,CALM,��
2022/07/28,20:00,0.585,0.829,0.526,0.987,0.706,0.336,0.583,0.551,�k��,0.6,��
2022/07/28,20:10,0.584,0.827,0.529,0.988,0.707,0.337,0.582,0.550,-,CALM,��
2022/07/28,20:20,0.583,0.829,0.528,0.987,0.705,0.336,0.584,0.549,�k,0.9,��
2022/07/28,20:30,0.583,0.830,0.529,0.989,0.706,0.336,0.581,0.550,�k�k��,0.9,��
2022/07/28,20:40,0.583,0.828,0.529,0.988,0.707,0.336,0.583,0.551,�k�k��,0.6,��
2022/07/28,20:50,0.581,0.828,0.529,0.990,0.705,0.338,0.583,0.552,�k�k��,0.6,��
2022/07/28,21:00,0.583,0.827,0.529,0.988,0.707,0.337,0.583,0.551,���k��,0.8,��
2022/07/28,21:10,0.585,0.830,0.528,0.988,0.707,0.337,0.582,0.550,-,CALM,��
2022/07/28,21:20,0.585,0.829,0.530,0.986,0.705,0.335,0.583,0.550,���k��,0.7,��
2022/07/28,21:30,0.585,0.829,0.529,0.987,0.706,0.336,0.584,0.550,�k��,0.5,��
2022/07/28,21:40,0.584,0.827,0.528,0.990,0.705,0.338,0.584,0.551,�k�k��,1.4,��
2022/07/28,21:50,0.584,0.827,0.529,0.988,0.706,0.337,0.584,0.551,�k,1.1,��
2022/07/28,22:00,0.583,0.829,0.528,0.989,0.706,0.336,0.584,0.550,�k,1.7,��
2022/07/28,22:10,0.584,0.828,0.529,0.988,0.707,0.334,0.584,0.550,�k,2.6,��
2022/07/28,22:20,0.582,0.828,0.528,0.989,0.707,0.339,0.584,0.550,�k,2.3,��
2022/07/28,22:30,0.583,0.829,0.529,0.990,0.707,0.336,0.584,0.551,�k,1.5,��
2022/07/28,22:40,0.582,0.828,0.528,0.989,0.707,0.336,0.585,0.552,�k�k��,0.9,��
2022/07/28,22:50,0.584,0.827,0.527,0.987,0.707,0.336,0.585,0.550,�k,0.8,��
2022/07/28,23:00,0.583,0.827,0.529,0.988,0.708,0.336,0.584,0.552,�k,2.5,��
2022/07/28,23:10,0.584,0.827,0.529,0.989,0.706,0.337,0.584,0.549,�k,1.9,��
2022/07/28,23:20,0.583,0.828,0.528,0.986,0.706,0.337,0.586,0.552,�k,1.4,��
2022/07/28,23:30,0.584,0.827,0.529,0.987,0.708,0.337,0.585,0.551,�k�k��,1.5,��
2022/07/28,23:40,0.584,0.829,0.528,0.988,0.707,0.337,0.584,0.550,�k�k��,0.9,��
2022/07/28,23:50,0.584,0.832,0.528,0.992,0.707,0.337,0.585,0.551,�k�k��,1.4,��
